Powrót do katalogu

COSMOS 970 DEB

AktywnyLEO
NORAD 64974·DEBRIS·🇷🇺 Russia

Wystrzelony Dec 21, 1977 z Baikonur Cosmodrome

Loading…

Następne Przeloty (najbliższe 24 godziny)

TLE

Starzejące sięSource: Space-Track

Epoka: Sep 11, 2026, 03:07 UTC

1 64974U 77121CK  26254.13032162  .00000279  00000-0  62084-3 0  9996
2 64974  65.9413 151.1012 0082473 146.7443   1.8299 13.41275216626100

Śledź COSMOS 970 DEB w czasie rzeczywistym z AllMySat

Download on the App Store